Location: Abundant Grace Fellowship
(35.0349°N, 90.0924°W)
Time: 21:26:28
(UTC+00:00)

Cosmos 1605 Rocket - Pass Details

Date: 18 January 2026
Orbit: 944 x 1004 km, 82.9° (Epoch: 10 February)

Event Time Altitude Azimuth Distance (km) Brightness Sun altitude
Rises 00:43:12 0° 3° (N) 3,734 6.9 -18.1°
Reaches altitude 10° 00:45:59 10° 12° (NNE) 2,777 6.1 -18.6°
Maximum altitude 00:51:48 36° 78° (ENE) 1,513 4.5 -19.8°
Drops below altitude 10° 00:57:31 10° 143° (SE) 2,735 6.1 -20.9°
Sets 01:00:14 0° 152° (SSE) 3,670 6.8 -21.5°
